Location: Krakow
(50.0830°N, 19.9170°E)
Time: 12:50:56
(UTC+01:00)

Tiros 1 despin weight - All Passes

Search period start: 15 March 2026 00:00
Search period end: 25 March 2026 00:00
Orbit: 556 x 593 km, 48.2° (Epoch: 14 March)

Date Brightness Start Highest point End Pass type
(mag) Time Alt. Az. Time Alt. Az. Time Alt. Az.
15 Mar - 04:09:06 10° S 04:11:40 15° SE 04:14:12 10° ESE visible
15 Mar - 05:47:20 10° SW 05:51:30 44° SSE 05:55:38 10° E daylight
15 Mar - 07:27:30 10° W 07:31:51 70° S 07:36:09 10° E daylight
15 Mar - 09:08:02 10° W 09:12:14 49° SSW 09:16:22 10° SE daylight
15 Mar - 10:49:13 10° W 10:52:09 18° SW 10:55:03 10° S daylight
16 Mar - 04:10:20 10° SSW 04:13:38 21° SE 04:16:55 10° E visible
16 Mar - 05:49:23 10° WSW 05:53:39 53° SSE 05:57:53 10° E daylight
16 Mar - 07:29:42 10° W 07:34:04 69° S 07:38:21 10° E daylight
16 Mar - 09:10:18 10° W 09:14:21 40° SSW 09:18:22 10° SE daylight
16 Mar - 10:52:11 10° WSW 10:54:07 13° SW 10:56:01 10° SSW daylight
17 Mar - 04:11:55 10° SSW 04:15:39 28° SSE 04:19:23 10° E visible
17 Mar - 05:51:28 10° WSW 05:55:48 61° S 06:00:05 10° E daylight
17 Mar - 07:31:54 10° W 07:36:14 65° S 07:40:31 10° ESE daylight
17 Mar - 09:12:35 10° W 09:16:26 31° SSW 09:20:14 10° SE daylight
18 Mar - 02:36:56 10° SSE 02:38:01 11° SE 02:39:06 10° ESE visible
18 Mar - 04:13:41 10° SW 04:17:42 35° SSE 04:21:43 10° E visible
18 Mar - 05:53:36 10° WSW 05:57:58 67° S 06:02:17 10° E daylight
18 Mar - 07:34:06 10° W 07:38:24 57° SSW 07:42:37 10° ESE daylight
18 Mar - 09:14:57 10° W 09:18:27 24° SSW 09:21:55 10° SSE daylight
19 Mar - 02:37:18 10° S 02:39:55 16° SE 02:42:32 10° ESE visible
19 Mar - 04:15:35 10° SW 04:19:47 44° SSE 04:23:57 10° E visible
19 Mar - 05:55:45 10° W 06:00:08 70° S 06:04:28 10° E daylight
19 Mar - 07:36:17 10° W 07:40:31 49° SSW 07:44:40 10° SE daylight
19 Mar - 09:17:29 10° W 09:20:25 18° SW 09:23:20 10° S daylight
20 Mar - 02:38:31 10° SSW 02:41:51 21° SE 02:45:11 10° E visible
20 Mar - 04:17:34 10° WSW 04:21:52 53° SSE 04:26:08 10° E visible
20 Mar - 05:57:54 10° W 06:02:17 69° S 06:06:36 10° E daylight
20 Mar - 07:38:30 10° W 07:42:35 40° SSW 07:46:37 10° SE daylight
20 Mar - 09:20:24 10° WSW 09:22:19 13° SW 09:24:13 10° SSW daylight
21 Mar - 02:40:03 10° SSW 02:43:49 28° SSE 02:47:36 10° E visible
21 Mar - 04:19:37 10° WSW 04:23:59 62° SSE 04:28:18 10° E visible
21 Mar - 06:00:03 10° W 06:04:25 64° S 06:08:43 10° ESE daylight
21 Mar - 07:40:45 10° W 07:44:36 31° SSW 07:48:26 10° SE daylight
22 Mar - 01:04:54 10° SSE 01:06:09 11° SE 01:07:22 10° ESE visible
22 Mar - 02:41:47 10° SW 02:45:50 36° SSE 02:49:51 10° E visible
22 Mar - 04:21:43 10° WSW 04:26:06 67° S 04:30:26 10° E visible
22 Mar - 06:02:12 10° W 06:06:31 57° SSW 06:10:47 10° ESE daylight
22 Mar - 07:43:04 10° W 07:46:35 24° SSW 07:50:03 10° SSE daylight
23 Mar - 01:05:19 10° S 01:07:59 16° SE 01:10:39 10° ESE visible
23 Mar - 02:43:39 10° SW 02:47:51 45° SSE 02:52:03 10° E visible
23 Mar - 04:23:49 10° W 04:28:12 70° S 04:32:33 10° E visible
23 Mar - 06:04:21 10° W 06:08:35 48° SSW 06:12:46 10° SE daylight
23 Mar - 07:45:32 10° W 07:48:29 18° SW 07:51:25 10° S daylight
24 Mar - 01:06:31 10° SSW 01:09:52 22° SE 01:13:15 10° E visible
24 Mar - 02:45:35 10° WSW 02:49:53 54° SSE 02:54:11 10° E visible
24 Mar - 04:25:55 10° W 04:30:18 69° S 04:34:40 10° ESE visible
24 Mar - 06:06:30 10° W 06:10:36 39° SSW 06:14:40 10° SE daylight
24 Mar - 07:48:25 10° WSW 07:50:21 13° SW 07:52:16 10° SSW daylight
